Welcome to Des Moines Iowa Weather. I am an independent private personal weather station on the Northwest Side of Des Moines, Iowa. Just East of Windsor Heights and just West of Glendale . This site is also mobile friendly.

There are no active watches, warnings or advisories


Visit our other weather sites:

Historical Data

Weather Station Setup



Weather Underground History page Text

Daily Summary for February 4, 2018 Units:  English    Metric   Both
« Previous Day
Next Day »
Daily Weekly Monthly Yearly Custom
  High: Low: Average:
Temperature: 23.9 °F 4.5 °F 11.5 °F
Dew Point: 19.0 °F -4.0 °F 2.6 °F
Humidity: 84 % 49 % 68 %
Wind Speed: 13.0 mph 0.0 mph 4 mph
Wind Gust: 21.0 mph - -
Wind:- - SE
Pressure: 30.42 in 29.89 in -
Precipitation: 0.00 in    
Historical Graphs
 
 
Tabular Data for February 4, 2018
Time Temperature Dew Point Pressure Wind Wind Speed Wind Gust Humidity Rainfall Rate (Hourly)
00:10 23.9 °F 19.0 °F 29.89 in North 2.0 mph 12.0 mph 82 % 0.00 in
00:26 23.2 °F 19.0 °F 29.90 in North 4.0 mph 11.0 mph 83 % 0.00 in
00:41 22.5 °F 18.0 °F 29.91 in North 3.0 mph 16.0 mph 82 % 0.00 in
00:56 21.8 °F 17.0 °F 29.93 in NNE 7.0 mph 14.0 mph 82 % 0.00 in
01:11 21.4 °F 17.0 °F 29.94 in NNE 5.0 mph 16.0 mph 82 % 0.00 in
01:26 20.5 °F 16.0 °F 29.95 in North 3.0 mph 13.0 mph 81 % 0.00 in
01:41 20.0 °F 15.0 °F 29.96 in North 12.0 mph 15.0 mph 81 % 0.00 in
01:56 19.7 °F 15.0 °F 29.97 in NW 2.0 mph 19.0 mph 81 % 0.00 in
02:11 19.0 °F 14.0 °F 29.98 in NNW 8.0 mph 18.0 mph 79 % 0.00 in
02:26 18.1 °F 12.0 °F 30.00 in North 5.0 mph 16.0 mph 77 % 0.00 in
02:41 17.7 °F 12.0 °F 30.00 in NNE 3.0 mph 16.0 mph 77 % 0.00 in
03:03 17.5 °F 11.0 °F 30.01 in North 2.0 mph 12.0 mph 77 % 0.00 in
03:11 17.1 °F 11.0 °F 30.02 in North 5.0 mph 19.0 mph 76 % 0.00 in
03:29 16.8 °F 10.0 °F 30.04 in North 7.0 mph 15.0 mph 76 % 0.00 in
03:41 16.3 °F 11.0 °F 30.05 in North 2.0 mph 17.0 mph 81 % 0.00 in
03:56 15.6 °F 12.0 °F 30.06 in NE 3.0 mph 13.0 mph 84 % 0.00 in
04:11 15.3 °F 11.0 °F 30.07 in North 3.0 mph 15.0 mph 84 % 0.00 in
04:26 14.7 °F 11.0 °F 30.08 in North 3.0 mph 15.0 mph 84 % 0.00 in
04:41 14.2 °F 10.0 °F 30.08 in North 13.0 mph 19.0 mph 83 % 0.00 in
04:56 13.9 °F 9.0 °F 30.08 in North 3.0 mph 19.0 mph 81 % 0.00 in
05:11 13.5 °F 8.0 °F 30.09 in North 5.0 mph 17.0 mph 80 % 0.00 in
05:27 13.4 °F 8.0 °F 30.11 in NW 7.0 mph 16.0 mph 79 % 0.00 in
05:42 12.8 °F 7.0 °F 30.14 in NW 13.0 mph 15.0 mph 78 % 0.00 in
05:57 12.5 °F 7.0 °F 30.14 in NW 13.0 mph 18.0 mph 78 % 0.00 in
06:12 12.1 °F 6.0 °F 30.13 in WNW 9.0 mph 16.0 mph 77 % 0.00 in
06:27 11.8 °F 6.0 °F 30.16 in NW 5.0 mph 17.0 mph 76 % 0.00 in
06:42 11.4 °F 5.0 °F 30.15 in WNW 3.0 mph 11.0 mph 76 % 0.00 in
06:57 11.1 °F 5.0 °F 30.18 in West 1.0 mph 21.0 mph 76 % 0.00 in
07:12 11.1 °F 5.0 °F 30.17 in North 5.0 mph 14.0 mph 77 % 0.00 in
07:27 10.7 °F 5.0 °F 30.18 in North 2.0 mph 18.0 mph 76 % 0.00 in
07:42 10.2 °F 4.0 °F 30.21 in NNW 9.0 mph 18.0 mph 77 % 0.00 in
07:57 9.6 °F 4.0 °F 30.23 in NW 13.0 mph 17.0 mph 76 % 0.00 in
08:12 9.3 °F 3.0 °F 30.22 in WNW 4.0 mph 14.0 mph 76 % 0.00 in
08:27 8.7 °F 2.0 °F 30.24 in NNW 3.0 mph 15.0 mph 75 % 0.00 in
08:42 8.7 °F 2.0 °F 30.26 in NNE 2.0 mph 13.0 mph 75 % 0.00 in
08:57 8.7 °F 2.0 °F 30.26 in North 6.0 mph 14.0 mph 75 % 0.00 in
09:13 8.3 °F 2.0 °F 30.27 in North 11.0 mph 16.0 mph 75 % 0.00 in
09:28 8.3 °F 2.0 °F 30.27 in North 7.0 mph 14.0 mph 75 % 0.00 in
09:43 8.5 °F 2.0 °F 30.30 in North 6.0 mph 13.0 mph 75 % 0.00 in
09:58 7.8 °F 1.0 °F 30.31 in North 2.0 mph 12.0 mph 74 % 0.00 in
10:13 7.7 °F 1.0 °F 30.32 in NNE 2.0 mph 13.0 mph 74 % 0.00 in
10:28 7.3 °F 0.0 °F 30.32 in NNE 3.0 mph 11.0 mph 73 % 0.00 in
10:43 7.4 °F 1.0 °F 30.34 in North 8.0 mph 13.0 mph 74 % 0.00 in
10:58 8.0 °F 0.0 °F 30.34 in North 10.0 mph 12.0 mph 71 % 0.00 in
11:13 8.7 °F 0.0 °F 30.36 in North 5.0 mph 13.0 mph 68 % 0.00 in
11:28 9.0 °F 0.0 °F 30.36 in North 6.0 mph 15.0 mph 68 % 0.00 in
11:43 10.0 °F 2.0 °F 30.36 in North 8.0 mph 12.0 mph 69 % 0.00 in
11:58 10.3 °F 2.0 °F 30.36 in North 5.0 mph 15.0 mph 69 % 0.00 in
12:13 10.3 °F 1.0 °F 30.36 in NNE 9.0 mph 15.0 mph 67 % 0.00 in
12:28 12.1 °F 2.0 °F 30.36 in NNE 2.0 mph 12.0 mph 65 % 0.00 in
12:44 12.1 °F 2.0 °F 30.36 in North 7.0 mph 13.0 mph 64 % 0.00 in
12:59 13.2 °F 3.0 °F 30.36 in North 4.0 mph 11.0 mph 63 % 0.00 in
13:14 12.3 °F 1.0 °F 30.36 in North 5.0 mph 11.0 mph 62 % 0.00 in
13:29 13.0 °F 1.0 °F 30.35 in NNE 2.0 mph 11.0 mph 60 % 0.00 in
13:44 13.1 °F 0.0 °F 30.36 in North 3.0 mph 12.0 mph 56 % 0.00 in
13:59 13.3 °F 0.0 °F 30.36 in North 2.0 mph 10.0 mph 56 % 0.00 in
14:14 13.8 °F 1.0 °F 30.36 in North 3.0 mph 11.0 mph 56 % 0.00 in
14:33 13.0 °F -1.0 °F 30.36 in North 2.0 mph 15.0 mph 53 % 0.00 in
14:44 12.9 °F -2.0 °F 30.37 in North 3.0 mph 12.0 mph 52 % 0.00 in
15:02 12.3 °F -3.0 °F 30.37 in North 8.0 mph 13.0 mph 51 % 0.00 in
15:14 12.0 °F -4.0 °F 30.37 in North 7.0 mph 14.0 mph 50 % 0.00 in
15:29 12.4 °F -4.0 °F 30.38 in NNE 10.0 mph 14.0 mph 49 % 0.00 in
15:45 12.0 °F -4.0 °F 30.38 in North 5.0 mph 14.0 mph 50 % 0.00 in
16:00 12.0 °F -3.0 °F 30.38 in NE 3.0 mph 13.0 mph 51 % 0.00 in
16:15 12.0 °F -3.0 °F 30.38 in North 8.0 mph 10.0 mph 52 % 0.00 in
16:30 11.6 °F -4.0 °F 30.39 in North 7.0 mph 12.0 mph 50 % 0.00 in
16:45 11.4 °F -4.0 °F 30.38 in North 4.0 mph 12.0 mph 51 % 0.00 in
17:00 11.3 °F -4.0 °F 30.39 in North 6.0 mph 12.0 mph 51 % 0.00 in
17:15 11.1 °F -4.0 °F 30.40 in NNE 4.0 mph 6.0 mph 52 % 0.00 in
17:30 10.8 °F -4.0 °F 30.40 in North 2.0 mph 10.0 mph 51 % 0.00 in
17:45 10.5 °F -4.0 °F 30.40 in North 1.0 mph 10.0 mph 53 % 0.00 in
18:00 10.3 °F -4.0 °F 30.40 in North 1.0 mph 6.0 mph 53 % 0.00 in
18:15 10.0 °F -4.0 °F 30.41 in Calm   3.0 mph 54 % 0.00 in
18:30 9.8 °F -4.0 °F 30.41 in North 1.0 mph 4.0 mph 55 % 0.00 in
18:45 9.5 °F -4.0 °F 30.42 in North 1.0 mph 3.0 mph 55 % 0.00 in
19:00 9.2 °F -4.0 °F 30.42 in Calm   2.0 mph 56 % 0.00 in
19:16 9.0 °F -4.0 °F 30.42 in Calm   2.0 mph 57 % 0.00 in
19:31 8.7 °F -3.0 °F 30.42 in North 1.0 mph 2.0 mph 58 % 0.00 in
19:46 8.4 °F -3.0 °F 30.41 in Calm     59 % 0.00 in
20:01 8.1 °F -4.0 °F 30.42 in Calm   2.0 mph 59 % 0.00 in
20:16 8.0 °F -3.0 °F 30.41 in Calm     60 % 0.00 in
20:31 7.7 °F -3.0 °F 30.41 in Calm     61 % 0.00 in
20:46 7.3 °F -3.0 °F 30.40 in Calm     62 % 0.00 in
21:01 6.9 °F -3.0 °F 30.40 in Calm     63 % 0.00 in
21:16 6.5 °F -3.0 °F 30.40 in Calm     64 % 0.00 in
21:31 6.2 °F -3.0 °F 30.40 in Calm     65 % 0.00 in
21:46 5.7 °F -3.0 °F 30.40 in Calm     66 % 0.00 in
22:01 5.5 °F -3.0 °F 30.40 in Calm     67 % 0.00 in
22:16 5.1 °F -3.0 °F 30.39 in Calm     69 % 0.00 in
22:31 5.0 °F -3.0 °F 30.39 in Calm     69 % 0.00 in
22:47 4.8 °F -3.0 °F 30.39 in Calm     70 % 0.00 in
23:02 4.5 °F -3.0 °F 30.38 in Calm     70 % 0.00 in
23:17 4.5 °F -3.0 °F 30.39 in Calm   1.0 mph 71 % 0.00 in
23:32 4.8 °F -3.0 °F 30.39 in Calm   2.0 mph 71 % 0.00 in
23:48 5.1 °F -2.0 °F 30.38 in Calm   2.0 mph 72 % 0.00 in
Des Moines Weather and Climate
Compliments of Weather Underground - 3 mb

Script developed by  Jim McMurry - jmcmurry@mwt.net Adapted for the template by  Wim van der Kuil - Leuven-Template.eu

You find our weather info also at:

Weather Underground

Equipment we use:

Weather-station
Davis VP2 Plus

Weather-program
Davis Weatherlink.Com

Weather-server
iMac (Retina 4K, 21.5-inch, Late 2015)

Provider
Hostmonster.com

Davis VP2 Plus

Davis Weatherlink.Com

iMac (Retina 4K, 21.5-inch, Late 2015)

Hostmonster.com